Location: Bishausen
(51.6334°N, 9.9631°E)
Time: 10:25:01
(UTC+00:00)

Cosmos 2082 Rocket - Pass Details

Date: 23 May 2024
Orbit: 832 x 853 km, 71.0° (Epoch: 18 June)

Event Time Altitude Azimuth Distance (km) Brightness Sun altitude
Exits shadow 00:06:57 27° 184° (S) 1,570 3.0 -16.9°
Maximum altitude 00:09:59 61° 114° (ESE) 968 2.4 -16.8°
Drops below altitude 10° 00:15:36 10° 35° (NE) 2,493 5.7 -16.6°
Sets 00:18:05 0° 33° (NNE) 3,431 6.8 -16.5°
